MUOS 5

基本信息
目录编号:
41622
目录名称:
MUOS 5
国际标识:
2016-041A
轨道中心:
EARTH
卫星名称:
MUOS 5
卫星全名:
--
卫星状态:
在轨 (已飞行3540 天)
发射日期:
2016-06-24 UTC
国别 :
美国 (US)
星等 :
--
轨道信息
数据来源 国际轨道数据 AOE轨道数据
星历时间 2026-03-04T11:15:27+0800
6小时前
查看轨道信息
2026-03-03T13:00:00+0800
1天前
查看轨道信息
半长轴 42164.756km 42164.784km
偏心率 0.0195196 0.0195277
轨道倾角 2.432° 2.433°
近地点辐角 262.747° 262.765°
升交点赤经 299.818° 299.812°
平近点角 263.106° 288.319°
近地点 34963.579km 34963.265km
远地点 36609.659km 36610.029km
周期 1436.098分钟 1436.100分钟
每日圈数 1.002717 1.002716
详细信息
使用方式:
暂无
2D轨道图
3D轨道图
轨道高度分析图
轨道倾角分析图
轨道综合分析图
查看轨道综合分析图